Main page
METAR-TAF:

METAR-TAF

Airports :

Newport State Airport

Newport, Rhode Island, United States

latitude: 41-31-48N, longitude: 071-17-01W, elevation: 171 ft

Current weather observation

The report was made 36 minutes ago, at 02:53 UTC
Calm wind
Temperature 43°F
Humidity 81%
Pressure 29.98 in. Hg
Visibility: 10 miles
Clear sky

METAR: KUUU 250253Z AUTO 00000KT 10SM CLR 06/03 A2998 RMK AO2 SLP152 T00610033 58004

Time: 22:29 (03:29 UTC)


TAF: missing

Weather observations and forecasts of more than 4000 airports (METAR and TAF reports).

The available stations are represented by yellow and red dots on the map.

Hover mouse over dot to see the name of the station.

Then click to see weather observations and forecasts.

To change the map : click on the green buttons with a black cross to zoom in, on the green button with a dash to zoom out, or on the green arrows for adjacent maps.


METAR-TAF: